Location: Dziadowski
(50.3833°N, 20.0333°E)
Time: 20:48:40
(UTC+00:00)

CZ-4 R/B - Pass Details

Date: 18 January 2026
Orbit: 676 x 743 km, 98.7° (Epoch: 18 February)

Event Time Altitude Azimuth Distance (km) Brightness Sun altitude
Rises 04:50:23 0° 9° (N) 3,102 7.1 -15.7°
Reaches altitude 10° 04:52:43 10° 3° (N) 2,190 6.3 -15.3°
Maximum altitude 04:57:12 42° 294° (WNW) 1,029 4.2 -14.6°
Drops below altitude 10° 05:01:45 10° 225° (SW) 2,215 6.1 -13.9°
Sets 05:04:08 0° 218° (SW) 3,141 7.0 -13.5°
